RH
85 84 81 73 69 66 64 65 55 48 52 50 44 33 31 30 25 44 46 24 18 21 24 25 24 27 23 24 21 20 24 24 21 20 19 54 56 66 74 73 76 78 81 88 100
100 91 88 84 75 69 61 62 60 51 51 50 45 32 30 31 47 57 30 25 15 21 20 21 27 20 19 20 22 22 27 22 18 17 28 51 51 59 69 75 76 82 96 100 99
100 100 96 92 85 74 66 60 60 53 51 52 45 33 30 34 56 30 30 32 19 25 20 22 24 22 23 21 22 23 23 21 18 16 37 53 53 52 66 69 68 80 89 90 99
98 93 100 97 95 86 72 65 57 57 51 55 48 34 30 49 32 21 22 23 25 25 22 20 20 25 25 23 21 23 20 19 17 41 52 52 50 67 61 67 71 74 84 92 93
97 99 98 98 91 92 84 69 63 58 53 54 51 36 37 34 18 31 21 24 24 27 19 21 26 26 25 22 20 22 18 20 32 44 46 45 53 64 76 82 76 78 82 86 88
72 95 98 100 88 88 93 77 68 63 55 54 56 40 51 26 21 30 23 24 24 25 21 22 24 24 26 26 23 22 26 41 49 46 46 54 62 55 80 82 83 79 75 75 82
65 82 96 98 99 87 90 89 71 66 56 56 65 60 68 24 21 31 26 24 21 20 22 20 23 23 25 27 24 25 32 36 46 44 48 42 41 61 79 80 84 86 81 83 80
69 72 91 99 100 97 89 92 77 69 58 57 72 74 52 18 23 29 27 27 24 22 19 18 20 24 27 26 23 21 23 26 40 43 46 29 41 65 82 78 78 80 74 73 82
83 73 77 95 99 99 100 94 77 64 67 78 75 82 35 18 24 20 19 28 28 26 21 20 22 28 27 27 27 29 25 32 42 39 45 36 43 56 76 74 70 72 70 74 72
85 79 69 92 96 100 99 95 70 75 85 85 82 58 26 22 26 29 29 29 23 26 27 27 31 30 31 28 31 32 30 30 29 26 40 46 36 66 77 72 65 64 69 73 72
87 84 68 85 92 100 97 79 56 73 87 52 40 31 18 28 35 27 26 27 26 28 34 36 32 33 28 31 26 30 31 32 29 24 34 41 40 57 74 77 75 69 69 73 70
88 87 81 82 94 100 99 75 56 66 68 57 53 46 35 35 42 35 24 25 30 33 38 35 39 31 31 32 32 31 31 31 29 23 28 27 32 43 67 69 64 66 69 69 67
83 87 81 88 98 99 93 80 64 74 76 50 52 53 45 40 43 39 25 27 30 35 38 38 29 31 33 32 33 31 30 33 33 30 26 30 28 39 51 60 59 60 60 62 64
80 84 77 91 94 93 83 71 72 75 64 44 48 50 49 44 38 31 22 24 32 32 39 35 33 32 31 31 29 31 28 32 34 31 27 28 27 28 42 51 54 54 56 57 56
78 81 73 90 96 85 72 74 75 71 63 31 61 40 46 31 26 31 21 24 36 38 36 35 34 38 36 32 30 30 33 34 33 33 34 34 28 25 38 42 47 48 48 51 52
75 78 81 76 100 82 80 79 74 80 73 26 47 52 49 30 25 25 25 28 31 40 39 34 32 33 31 28 30 31 32 33 40 40 42 38 33 30 32 30 32 38 43 43 45
72 74 84 85 86 83 85 76 92 92 35 30 50 41 36 34 30 28 34 38 34 41 42 34 34 30 29 30 32 31 34 39 36 50 43 43 42 31 26 28 28 29 34 38 40
70 76 86 77 92 85 79 92 97 62 51 39 38 39 37 31 30 29 36 33 32 30 38 36 38 33 32 29 32 36 33 44 42 48 35 43 40 23 27 27 34 39 36 31 40
74 80 97 79 77 100 95 96 65 66 49 42 34 39 37 31 31 31 37 31 32 34 33 47 38 34 37 32 27 34 36 35 58 70 57 42 34 24 27 30 35 38 40 36 39
83 96 88 78 73 99 99 74 71 49 54 55 42 41 42 37 35 34 39 32 31 34 30 38 37 36 35 36 36 32 33 42 49 54 55 41 39 26 24 26 30 33 35 38 45
90 95 65 74 93 95 90 74 58 51 48 55 62 58 43 41 35 41 36 27 28 32 30 40 31 33 42 39 34 37 38 42 39 48 46 47 35 31 25 25 30 32 33 39 41
90 96 78 77 96 86 88 62 57 49 51 55 58 63 52 43 42 39 36 28 28 32 34 38 44 46 33 35 32 33 37 40 52 46 59 59 40 26 29 27 27 27 30 39 41
97 82 84 76 94 79 68 58 61 53 54 59 60 58 49 43 38 38 38 29 41 34 41 44 43 44 35 35 34 38 38 43 49 55 58 67 41 26 28 27 27 27 25 31 46
96 97 95 89 59 57 74 68 64 59 56 52 58 57 51 50 44 40 40 38 47 36 51 38 49 41 36 34 36 43 42 45 44 57 53 51 37 29 26 29 27 29 30 28 31
97 86 83 94 83 64 60 60 66 65 54 53 63 60 58 54 45 45 44 52 49 65 49 40 44 47 38 33 34 35 40 46 41 44 49 38 41 31 30 29 29 33 33 44 56
99 92 81 77 68 74 68 67 62 58 52 58 59 55 52 62 49 50 54 52 48 58 52 48 45 43 42 45 41 44 40 44 43 44 42 40 40 33 31 31 37 38 51 58 61
92 93 69 74 75 72 66 63 62 59 55 47 55 58 63 49 49 48 42 44 48 53 57 54 65 57 49 49 42 59 48 40 40 42 42 46 35 35 35 39 44 52 53 57 60
Wind_Speed
16 16 16 16 16 17 18 18 19 20 22 24 25 23 22 24 25 7 3 1 1 11 9 8 6 5 4 2 1 2 1 3 3 3 1 1 4 1 1 2 1 3 1 14 22
18 17 17 17 16 17 17 18 20 21 22 24 25 22 22 23 16 5 1 0 7 9 7 6 3 5 2 3 2 2 2 5 5 4 1 0 2 6 3 2 2 4 11 22 23
19 19 18 18 17 17 17 18 20 21 22 24 24 21 21 17 4 1 6 3 11 8 7 7 7 3 1 1 3 3 4 3 7 7 2 1 3 4 5 3 4 7 11 12 17
17 19 21 19 18 19 18 18 20 21 22 23 23 20 19 5 2 1 5 6 13 9 8 6 1 3 1 3 4 3 8 6 5 2 4 6 6 2 2 5 5 11 11 7 14
20 19 19 20 19 20 20 19 20 21 21 22 22 18 8 3 6 3 3 12 14 9 7 4 2 2 1 3 2 5 5 3 5 4 4 5 3 2 4 9 13 12 10 10 12
20 20 19 19 20 19 21 21 21 21 21 22 21 14 2 4 2 2 8 13 7 7 6 4 2 2 2 4 3 2 2 1 2 3 4 5 3 2 5 7 10 10 10 9 11
20 20 19 19 19 19 21 22 21 22 22 22 17 8 1 12 3 7 9 4 8 7 4 4 2 1 1 4 2 2 1 3 2 1 2 3 3 3 8 8 10 9 7 7 10
18 19 19 19 19 18 20 22 23 24 25 20 8 3 7 3 6 11 9 5 9 7 6 4 1 2 2 4 4 2 3 1 1 1 2 4 2 2 6 9 10 9 7 8 11
18 16 17 18 18 19 21 22 24 26 14 4 2 1 8 3 5 9 15 5 7 8 5 3 2 1 1 1 2 5 1 0 2 3 4 1 1 6 8 9 10 10 7 6 9
19 18 16 16 17 19 21 22 23 10 1 2 1 2 6 2 1 3 9 9 3 4 2 2 3 0 1 1 3 3 1 1 1 2 3 4 4 8 11 10 11 10 9 8 9
19 18 14 13 15 17 17 10 4 1 5 7 2 3 4 7 3 5 6 9 3 3 2 1 2 5 8 5 4 4 3 0 2 3 3 9 6 13 14 10 10 11 10 11 12
17 16 13 9 10 13 11 2 5 2 8 11 13 8 12 0 4 4 10 5 4 5 3 1 3 3 3 5 5 3 1 2 1 2 6 5 6 2 13 11 13 13 12 13 11
16 14 14 10 8 9 10 11 9 9 3 6 7 6 5 13 8 6 10 5 4 5 5 4 3 2 3 3 4 2 1 2 3 1 2 2 2 2 6 10 9 12 10 12 13
18 14 12 9 4 7 6 3 7 8 4 6 5 6 7 8 5 11 13 5 2 9 7 4 1 2 2 4 3 2 1 3 3 1 2 1 2 4 5 10 11 14 13 16 15
20 16 12 10 3 3 4 13 7 4 4 2 4 5 6 9 8 7 10 3 8 6 5 4 4 3 5 5 5 4 3 1 1 2 2 1 1 1 1 9 17 18 17 17 17
21 18 13 12 12 10 5 13 1 1 7 2 6 5 6 3 3 4 5 5 4 5 1 3 2 5 5 3 4 4 2 4 3 2 1 1 2 3 4 7 8 16 18 18 17
26 21 19 13 6 16 13 5 2 6 5 4 4 6 6 6 5 4 7 6 6 5 4 0 3 2 3 3 1 2 2 1 1 1 2 3 1 6 5 6 9 11 17 20 18
27 24 23 22 16 5 7 3 10 5 10 3 2 5 8 6 4 4 8 10 2 4 3 6 3 7 4 5 6 5 4 4 3 3 1 1 4 2 3 6 8 8 11 9 14
27 27 22 25 24 10 3 10 8 7 4 3 2 4 3 3 5 4 7 14 10 8 5 4 4 1 2 2 3 3 3 2 6 2 0 1 4 8 1 1 3 3 5 7 8
26 17 21 27 25 9 5 21 10 7 1 1 4 4 9 6 4 9 8 5 7 9 4 6 1 1 2 2 3 2 6 2 1 3 3 2 3 3 3 2 3 7 5 6 6
19 5 15 27 23 6 15 16 21 9 2 2 2 2 4 6 7 5 9 3 8 8 4 5 2 2 2 5 7 3 3 4 3 1 3 2 4 6 6 2 4 5 6 7 7
12 8 23 39 12 8 18 16 6 16 4 5 2 3 3 6 6 7 12 9 9 12 9 5 4 4 7 1 2 3 6 6 3 5 1 0 5 3 7 5 5 7 4 4 6
6 7 24 34 14 17 16 28 4 15 14 6 7 5 1 3 4 6 6 5 9 9 9 7 2 2 2 1 1 4 5 4 4 2 7 4 4 1 3 6 5 8 5 3 4
5 8 6 13 17 23 19 20 26 6 8 9 3 3 1 2 3 5 5 4 8 7 6 9 4 6 10 7 4 4 5 5 5 3 4 6 6 7 7 6 9 6 7 8 5
6 6 8 13 22 22 21 19 25 17 13 11 5 7 5 5 1 4 3 2 3 6 4 6 7 6 4 3 5 5 6 11 9 6 7 8 9 8 7 6 5 6 5 4 5
4 4 4 5 25 22 16 19 26 25 16 16 14 13 12 4 6 6 5 2 2 1 6 3 4 5 4 3 5 5 3 9 10 2 8 5 10 9 3 3 1 2 4 8 9
11 3 8 15 19 20 25 21 17 19 18 5 13 2 8 18 10 3 1 3 4 5 4 4 7 4 4 1 1 4 8 10 4 5 6 8 11 4 6 6 5 6 8 8 8
Wind_Direction
306 311 317 322 327 332 331 333 335 338 340 338 338 339 340 334 331 330 259 346 182 156 136 130 105 113 102 98 65 120 302 278 260 234 285 175 186 85 84 134 69 1 5 124 129
297 304 309 315 322 327 331 329 333 335 337 337 337 340 340 334 329 286 122 351 151 158 165 134 125 130 123 158 170 174 215 231 223 218 286 223 245 156 180 172 121 77 112 125 128
297 294 302 309 316 321 325 327 328 333 336 337 338 340 337 334 307 222 324 209 172 160 162 133 131 106 130 166 197 175 229 221 255 250 152 164 197 179 181 215 209 158 138 139 120
287 284 293 298 310 316 320 323 326 329 332 335 337 338 334 345 212 208 336 184 167 164 152 128 132 107 130 237 189 246 259 254 323 117 163 164 126 120 28 343 132 130 129 107 121
284 285 282 289 297 309 314 320 322 324 327 331 334 339 347 338 252 327 85 143 164 180 163 138 169 127 242 232 219 220 270 310 302 130 79 94 71 112 48 75 104 119 134 149 138
292 283 282 286 289 298 309 314 316 319 321 324 327 338 342 287 231 164 144 145 179 188 159 161 164 202 255 251 221 229 316 42 110 150 116 127 148 284 86 117 116 143 158 152 134
303 291 286 285 285 290 301 307 311 314 313 313 316 342 284 245 204 166 164 166 185 204 162 212 157 129 344 278 315 291 269 104 101 165 164 178 69 42 119 158 151 153 160 157 148
299 300 290 291 284 288 294 302 308 307 305 302 294 331 251 235 215 229 218 229 218 222 232 244 260 219 189 318 357 47 53 28 356 258 15 329 350 293 147 174 167 167 161 160 159
296 298 298 291 291 289 291 300 306 305 303 262 256 148 267 259 238 240 217 203 188 217 239 253 64 23 24 20 351 20 131 96 125 210 130 11 263 201 183 197 177 183 185 165 167
289 293 299 291 297 298 295 305 303 292 320 140 154 329 260 198 271 183 190 190 171 140 115 83 65 40 58 148 210 131 58 6 262 232 159 193 226 177 207 194 199 200 202 207 200
284 291 290 293 295 301 302 323 307 264 228 204 184 267 277 315 291 223 173 154 132 79 154 35 183 222 225 187 176 128 123 189 250 261 255 223 209 194 206 202 211 218 217 225 232
278 287 292 286 288 297 295 278 286 288 295 233 243 251 261 224 312 257 166 150 145 186 149 93 230 246 271 194 166 150 74 328 314 341 205 302 253 191 193 221 208 213 226 227 229
264 272 290 293 288 279 260 257 268 330 287 280 205 203 198 167 206 242 166 147 149 165 186 180 183 98 204 206 203 191 220 200 241 325 82 187 313 205 207 243 240 232 223 239 229
254 258 273 278 264 222 252 297 288 259 280 259 219 254 165 156 222 199 179 146 143 193 163 227 244 168 233 223 168 257 176 164 249 185 191 319 223 284 227 227 236 237 228 233 227
247 247 246 227 299 201 167 14 90 205 284 213 162 166 161 185 144 210 171 95 160 174 158 222 160 188 219 221 179 229 161 169 107 126 158 19 157 233 96 238 239 236 232 228 226
233 235 238 237 240 219 207 341 0 207 248 276 131 169 168 222 147 110 140 69 124 121 344 197 183 157 218 219 190 135 107 54 76 106 200 173 207 276 209 219 253 238 236 235 224
229 224 225 216 214 237 258 305 130 223 309 211 172 164 202 157 146 140 153 154 158 145 201 177 212 205 184 153 111 117 118 279 178 148 196 143 154 244 252 236 242 252 234 231 231
222 223 219 226 216 157 155 177 217 211 244 329 128 136 190 147 199 136 142 180 227 123 135 185 249 177 187 199 196 192 193 166 198 192 179 164 225 212 216 274 290 283 271 247 229
215 221 219 218 207 213 191 206 217 190 236 259 98 140 237 214 151 138 166 193 187 178 159 150 256 182 176 138 170 172 201 106 105 19 240 246 272 276 334 0 303 324 314 283 244
200 213 218 204 208 189 215 222 211 198 230 346 227 184 181 191 155 182 172 183 192 187 160 198 165 263 138 143 62 204 143 119 36 168 223 256 274 249 313 293 322 327 327 307 300
180 202 211 198 188 195 213 210 217 264 159 219 265 271 215 172 181 186 191 219 191 166 137 136 150 240 125 203 186 151 177 71 119 149 194 202 240 213 237 227 256 274 270 272 262
175 204 169 174 183 206 216 203 216 219 212 241 223 232 212 191 165 185 196 208 171 146 160 190 149 198 207 129 197 181 196 169 177 196 146 210 258 258 252 264 280 281 246 242 254
187 178 172 179 188 201 207 211 208 218 217 193 213 211 176 229 199 199 195 222 153 155 157 174 175 202 298 46 22 219 185 135 105 91 185 177 251 223 275 291 254 270 282 260 242
180 164 170 206 220 209 185 203 208 203 249 209 225 184 171 294 230 210 215 221 184 188 118 127 149 176 223 217 153 190 186 180 151 157 179 219 250 270 287 292 291 289 299 293 277
195 190 157 190 209 214 197 193 192 203 212 187 211 215 170 218 242 211 170 133 129 166 137 156 198 180 233 213 176 202 187 180 196 203 193 243 211 247 248 263 280 305 317 28 58
201 170 168 170 211 214 208 207 195 192 183 207 220 198 214 205 197 195 136 126 226 210 155 174 197 152 185 106 192 228 182 199 218 221 256 245 249 236 223 232 317 13 96 90 83
199 207 184 196 189 204 214 202 197 185 221 212 197 160 195 227 256 266 3 181 176 151 193 170 139 132 219 120 174 291 213 206 202 211 203 232 245 180 199 185 130 115 102 98 89